www.pogodaiklimat.ru

Погода и климат >> Архив погоды >> Индия >> Бихар >> Гая


ПОГОДА в Гае

  • Прогноз погоды в Гае
  • Монитор погоды в Гае

АРХИВ ПОГОДЫ в Гае

Время (UTC), дата Ветер
(напр.,м/с)
 
Видим.   Явления Облачность Т
(С)
Тd
(С)
f
(%)
Тe
(С)
Тes
(С)
Комфортность P
(гПа)
Po
(гПа)
Тmin
(С)
Tmax
(С)
R
(мм)
R24
(мм)
S
(см)
18 13.07 З 4 2000 м мгла 6/3 540 м
[Sc Ac trans]
+30.0 +24.6 73 +43 +43 опасность
перегрева
1000.7 987.7
21 13.07 З 1 2000 м мгла 6/3 540 м
[Sc Ac trans]
+27.8 +25.2 86 +40 +40 очень
душно
999.4 986.3
00 14.07 штиль 0 2000 м мгла 9/5 540 м
[Sc Ac trans]
+25.6 +24.1 91 +35 +35 очень
душно
999.2 986.0
03 14.07 ЮЗ 1 2000 м мгла 8/5 540 м
[Sc Ac trans]
+29.6 +25.1 77 +43 +47 опасность
перегрева
1000.2 987.2 +24.2
06 14.07 З 4 4000 м мгла 8/4 540 м
[Sc Ac trans]
+34.0 +23.4 54 +45 +50 опасность
перегрева
1000.1 987.3
09 14.07 СЗ 4 4000 м мгла 6/0
[Ac trans Ci fib]
+34.0 +24.0 56 +46 +53 опасность
перегрева
998.3 985.5
12 14.07 СЗ 4 4000 м мгла 6/4 540 м
[Sc Ac trans]
+34.4 +24.8 57 +47 +48 опасность
перегрева
996.8 984.0 +35.5
15 14.07 ЮЗ 2 2000 м мгла 6/4 600 м
[Sc Ac trans]
+32.0 +25.8 70 +47 +47 опасность
перегрева
998.2 985.3
18 14.07 ЮЗ 2 2000 м мгла 6/3 600 м
[Sc Ac trans]
+30.4 +25.0 73 +44 +44 опасность
перегрева
998.1 985.1
21 14.07 штиль 0 2000 м мгла 6/3 600 м
[Sc Ac trans]
+30.0 +25.2 76 +44 +44 опасность
перегрева
997.1 984.1
00 15.07 ЮЗ 2 2000 м мгла 6/3 600 м
[Sc Ac trans]
+28.0 +24.3 80 +39 +39 очень
душно
997.1 984.1
03 15.07 ЮЗ 3 2000 м мгла 6/3 600 м
[Sc Ci fib]
+31.6 +24.2 65 +44 +49 опасность
перегрева
999.2 986.3 +26.8
06 15.07 С 4 4000 м мгла 6/0
[Ac trans Ci fib]
+34.6 +24.4 56 +47 +58 опасность
перегрева
999.3 986.5
09 15.07 З 3 4000 м мгла 8/5 540 м
[Sc Ac trans]
+35.0 +23.6 52 +46 +50 опасность
перегрева
998.5 985.7
12 15.07 З 2 4000 м мгла 8/1 540 м
[Sc Ac trans Ci fib]
+35.0 +22.9 50 +45 +46 опасность
перегрева
997.0 984.3 +36.0
15 15.07 штиль 0 2000 м мгла 4/4 600 м
[Sc]
+31.2 +25.9 73 +46 +46 опасность
перегрева
998.6 985.7
18 15.07 штиль 0 2000 м мгла 4/4 600 м
[Sc]
+29.4 +25.7 81 +44 +44 опасность
перегрева
1000.4 987.4
21 15.07 штиль 0 2000 м мгла 4/4 600 м
[Sc]
+28.0 +25.4 86 +41 +41 опасность
перегрева
999.5 986.4
00 16.07 штиль 0 2000 м мгла 6/5 540 м
[Sc Ac trans]
+27.6 +24.7 84 +39 +39 очень
душно
999.3 986.2
03 16.07 С 1 2000 м мгла 4/0
[Ci fib]
+30.2 +25.7 77 +45 +56 опасность
перегрева
1001.7 988.7 +26.3
06 16.07 С 2 4000 м мгла 6/3 540 м
[Sc Ci fib]
+34.0 +25.6 62 +49 +63 опасность
перегрева
1002.0 989.2
09 16.07 З 3 4000 м мгла 6/6 540 м
[Cb calv]
+35.8 +24.8 53 +49 +53 опасность
перегрева
1000.0 987.3
12 16.07 С 1 4000 м мгла 5/3 540 м
[Sc Ac trans]
+33.4 +25.9 65 +49 +50 опасность
перегрева
999.0 986.2 +36.2
15 16.07 штиль 0 2000 м мгла 5/3 600 м
[Sc Ac trans]
+31.4 +26.7 76 +48 +48 опасность
перегрева
1001.1 988.2
18 16.07 штиль 0 2000 м мгла 3/3 600 м
[Sc]
+30.4 +26.5 80 +47 +47 опасность
перегрева
1001.9 988.9
21 16.07 штиль 0 2000 м мгла 3/3 600 м
[Sc]
+29.2 +25.8 82 +44 +44 опасность
перегрева
1001.3 988.3
00 17.07 штиль 0 2000 м мгла 3/3 600 м
[Sc]
+27.6 +25.3 87 +40 +40 очень
душно
1000.8 987.7
03 17.07 штиль 0 2000 м мгла ясно +31.0 +25.1 71 +45 +59 опасность
перегрева
1002.5 989.5 +26.7
06 17.07 З 2 4000 м мгла 3/3 540 м
[Sc]
+34.6 +26.0 61 +50 +65 опасность
перегрева
1001.6 988.8
09 17.07 З 2 2000 м мгла 8/4 540 м
[Cb calv Ac trans]
+34.8 +25.0 57 +48 +54 опасность
перегрева
999.7 986.9
12 17.07 штиль 0 4000 м мгла 8/4 540 м
[Cb calv Ac trans]
+34.2 +26.1 63 +50 +51 опасность
перегрева
998.2 985.4 +35.5
15 17.07 Ю 1 2000 м мгла 6/4 540 м
[Sc Ac trans]
+30.0 +24.9 74 +43 +43 опасность
перегрева
1000.4 987.4
18 17.07 В 1 2000 м мгла 8/4 540 м
[Sc Ac trans]
+29.8 +24.7 74 +42 +42 опасность
перегрева
1002.0 989.0
21 17.07 штиль 0 2000 м мгла 8/4 540 м
[Sc Ac trans]
+29.2 +24.6 76 +41 +41 опасность
перегрева
1000.6 987.6
00 18.07 ЮВ 1 2000 м мгла 6/4 540 м
[Sc Ac trans]
+28.0 +25.4 86 +41 +41 опасность
перегрева
1001.3 988.2
03 18.07 ЮВ 1 2000 м мгла 6/3 600 м
[Sc Ci fib]
+31.8 +25.6 70 +47 +55 опасность
перегрева
1001.2 988.3 +26.7
06 18.07 С 2 4000 м мгла 6/5 540 м
[Cb calv Ac trans]
+35.6 +25.6 56 +50 +60 опасность
перегрева
1001.2 988.4
09 18.07 З 4 4000 м мгла 8/8 540 м
[Cb calv]
+36.8 +25.0 51 +50 +52 опасность
перегрева
999.2 986.5
12 18.07 СЗ 2 4000 м мгла 3/3 540 м
[Sc]
+34.4 +24.8 57 +47 +48 опасность
перегрева
998.0 985.2 +37.4
15 18.07 С 1 2000 м мгла 8/5 540 м
[Sc Ac trans]
+32.4 +25.7 68 +48 +48 опасность
перегрева
1000.0 987.1
18 18.07 штиль 0 2000 м мгла 8/5 540 м
[Sc Ac trans]
+30.6 +27.3 83 +49 +49 опасность
перегрева
1001.3 988.3
21 18.07 В 1 2000 м мгла 8/5 540 м
[Sc Ac trans]
+29.8 +27.3 86 +47 +47 опасность
перегрева
1000.9 987.9
00 19.07 Ю 1 2000 м мгла 8/4 540 м
[Sc Ac trans]
+28.6 +26.1 86 +43 +43 опасность
перегрева
1000.7 987.6
03 19.07 ЮЗ 2 2000 м мгла 3/3 540 м
[Sc]
+32.2 +25.5 68 +47 +54 опасность
перегрева
1001.9 989.0 +27.4
06 19.07 В 2 4000 м мгла 5/3 540 м
[Sc Ac trans]
+34.8 +26.2 61 +51 +63 опасность
перегрева
1001.7 988.9
09 19.07 Ю 2 4000 м гроза без осадков 6/6 540 м
[Cb calv]
+36.6 +25.1 52 +50 +56 опасность
перегрева
999.1 986.4
12 19.07 В 1 4000 м мгла {гроза} 8/6 540 м
[Cb calv Ac trans]
+33.0 +24.8 62 +46 +47 опасность
перегрева
998.4 985.6 +37.1
15 19.07 штиль 0 2000 м мгла 8/3 540 м
[Sc Ac trans]
+31.2 +25.9 73 +46 +46 опасность
перегрева
1000.6 987.7
18 19.07 В 2 2000 м мгла 6/3 540 м
[Sc Ac trans]
+30.0 +26.4 81 +46 +46 опасность
перегрева
1002.1 989.1
21 19.07 В 2 2000 м мгла 6/3 540 м
[Sc Ac trans]
+29.2 +26.7 86 +45 +45 опасность
перегрева
1001.6 988.6
00 20.07 ЮЗ 2 2000 м мгла 6/3 540 м
[Sc Ac trans]
+27.4 +25.4 89 +40 +40 очень
душно
1001.8 988.7
03 20.07 Ю 1 2000 м мгла 4/0 300 м
[Ac trans]
+31.6 +25.1 69 +46 +55 опасность
перегрева
1003.6 990.6 +26.6
06 20.07 В 2 4000 м мгла 6/4 540 м
[Sc Ac trans]
+34.8 +25.0 57 +48 +59 опасность
перегрева
1002.9 990.1
09 20.07 Ю 3 4000 м мгла 6/6 540 м
[Sc diur, vesp]
+36.0 +24.1 50 +47 +52 опасность
перегрева
1000.6 987.9
12 20.07 В 1 4000 м мгла 3/3 540 м
[Sc]
+36.0 +23.4 48 +46 +47 опасность
перегрева
998.7 986.0 +37.0
15 20.07 ЮВ 1 2000 м мгла 3/3 600 м
[Sc]
+32.6 +24.0 61 +45 +45 опасность
перегрева
1000.6 987.7

 

Местоположение метеостанции Гая (Бихар, Индия): широта 24.75 долгота 84.95 высота над уровнем моря 116 м.

В архиве по умолчанию представлена погода в Гае за последнюю неделю. Архивные данные за месяц целиком и за предыдущие месяцы, начиная с января 2011 года, Вы можете получить, выбрав интересующий диапазон дат из раскрывающегося списка и нажав кнопку "Ввод!".


*Определитесь, кто Вы:
робот инопланетянин человек

Внимание! Время в таблицах - всемирное. Для получения местного времени необходимо прибавить поправку, которая равна 5.5 ч.

Смотрите также архив погоды в соседних городах и на ближайших метеорологических станциях:

Погода в Дехри (Бихар, Индия) (80 км)
Погода в Патне (Бихар, Индия) (96 км)
Погода в Чхапре (Бихар, Индия) (117 км)
Погода в Далтонгандже (Джаркханд, Индия) (118 км)
Погода в Гхазипуре (Уттар-Прадеш, Индия) (158 км)
Погода в Ранчи (Джаркханд, Индия) (163 км)
Погода в Варанаси (Уттар-Прадеш, Индия) (204 км)
Погода в Бхагалпуре (Бихар, Индия) (209 км)
Погода в Пурулии (Западная Бенгалия, Индия) (217 км)
Погода в Варанаси аэропорту (Уттар-Прадеш, Индия) (224 км)

Пояснения к столбцам:

Ветер - указаны скорость ветра в м/с - средняя за 10 мин, порывы в срок и между сроками (в фигурных скобках) и направление, откуда дует ветер: С - северный, СВ - северо-восточный, В - восточный, ЮВ - юго-восточный, Ю - южный, ЮЗ - юго-западный, З - западный, СЗ - северо-западный.
Видимость - горизонтальная дальность видимости в метрах или километрах. При видимости от 1 до 10 км при отсутствии осадков обычно наблюдается дымка, при ухудшении видимости до 1 км и менее - туман. В сухую погоду видимость может ухудшаться дымом, пылью или мглою.
Явления - указаны атмосферные явления, наблюдавшиеся в срок или в последний час перед сроком; фигурными скобками обозначены явления, наблюдавшиеся между сроками (за 1-3 часа до срока); квадратными скобками обозначены град или гололедные отложения с указанием их диаметра в мм.
Облачность - указаны через наклонную черту общая и нижняя облачность в баллах и высота нижней границы облаков в метрах; квадратными скобками обозначены формы облаков: Ci - перистые, Cs - перисто-слоистые, Cc - перисто-кучевые, Ac - высококучевые, As - высокослоистые, Sc - слоисто-кучевые, Ns - слоисто-дождевые, Cu - кучевые, Cb - кучево-дождевые. Подробнее классификацию облаков см. в Атласе облаков (PDF).
T - Температура воздуха - температура, измеренная на высоте 2 м над землей.
Td - Температура точки росы - температура, при понижении до которой содержащийся в воздухе водяной пар достигнет насыщения.
f - Относительная влажность воздуха - влажноcть воздуха, измеренная на высоте 2 м над землей.
Te - Эффективная температура - температура, которую ощущает одетый по сезону человек в тени. Характеристика душности погоды. При расчете учитывается влияние влажности воздуха и скорости ветра на теплоощущения человека.
Tes - Эффективная температура на солнце - температура, которую ощущает человек, с поправкой на солнечный нагрев. Характеристика знойности погоды. Зависит от высоты солнца над горизонтом, облачности и скорости ветра. Ночью, в пасмурную погоду, а также при ветре 12 м/с и более поправка равна нулю.
P - Атмосферное давление - приведенное к уровню моря атмосферное давление.
Po - Атмосферное давление - измеренное на уровне метеостанции атмосферное давление.
Tmin - Минимальная температура - минимум температуры воздуха на высоте 2 м над землей.
Tmax - Максимальная температура - максимум температуры воздуха на высоте 2 м над землей.
R - Количество осадков - Количество выпавших осадков за период времени, мм. При наведении курсора мыши на число - период времени, за который выпало указанное количество осадков.
R24 - Количество осадков - Количество выпавших осадков за 24 часа, мм.
S - Снежный покров - Высота снежного покрова, см. При наведении курсора мыши на число - состояние снежного покрова и степень покрытия местности в баллах.